Showing default

COSMOS 1914, 18793

Orbit data source: Space-Track

COSMOS 1914, 18793 is a payload satellite owned by UNKS (CIS) in LEO that was launched on Fri, 15 Jan 1988 UTC via a TSIKLON-3 launch vehicle from the Plesetsk Missile And Space Complex (PKMTR). Payload-class satellites include a variety of spacecraft equipped with specific instruments for various scientific and technological missions. These include communications satellites like Starlink; space stations such as the ISS; scientific satellites like the Hubble; Earth observation satellites from companies like Planet Labs, Umbra, and HawkEye 360; GPS; miniature CubeSats for education and research; and military/defense satellites.

Loading next visibility...
Identifier
18793, 1988-002F
Orbit
LEO
Country
Flag of CISCIS
Related business
Manufacturer
NPO PM
Mission
Defense Communications
Bus & Motor
STRELA-3, Unknown motor
Mass
225 kg wet, 225 kg dry
Launch date (UTC)
1988-01-15 (38 years ago)
Launch vehicle
TSIKLON-3
Launch site
Plesetsk Missile And Space Complex (PKMTR)
Object type
Payload
Rocket body
Debris
Shape & HBR
Cyl, 0.8 m
Radar Cross Section
1.257 m², Large (>1 m²)

Expand to show TLE details & history
Last TLE update: 8 hours ago

TLE from 8 hours ago
0 COSMOS 1914
1 18793U 88002F   25351.91620126  .00000020  00000-0  47927-4 0  9994
2 18793  82.6070 328.9415 0018401  66.6147 352.2242 12.66456413752843
Epoch: 2025-12-17T21:59Z
TLE epoch observation values (Epoch: 2025-12-17T21:59:19.788Z)
Latitude
58.12254°
Longitude
-75.68803°
Altitude
1,391.983 km
Speed
7.176 km/s
True Right ascension
22h 43m 41s
True Declination
57° 58' 51"
Sunlit
Object was in daylight at epoch
Visualization orbit readout
Latitude
Unknown
Longitude
Unknown
Altitude
Unknown
Speed
Unknown
Apparent Right ascension
Unknown
Apparent Declination
Unknown
Sunlit
N/A
Visualization observer readout
Local Sidereal Time
04:50:34
Azimuth
Unknown
Elevation
Unknown
Doppler factor
Unknown
Orbital elements
Apogee altitude
1,408.023 km
Perigee altitude
1,379.421 km
Semi-major axis
7,771.859 km
Eccentricity
0.00184
Inclination
82.607°
RAAN
328.9415°
Arg. of periapsis
66.6147°
True anomaly
352.19561°
Mean anomaly
352.2242°
Eccentric anomaly
352.20991°
Mean motion
3.16779 °/min
Orbital period
113.64 mins
BSTAR
0.000047927
Loading maneuver chart data...
Computing Atmospheric mass density...
Loading historical data...
Loading historical data...
Loading historical data...
Loading historical data...
Loading historical data...
Loading historical data...
Loading historical data...

Documentation

Showing up to 5 results
|